Total_Precipitation_Accumulation
1.73 1.76 2.15 2.61 2.66 1.69 1.06 0.77 0.58 0.61 0.54 0.35 0.24 0.20 0.34 0.67 0.90 0.97 0.81 0.69 0.54 0.49 0.43 0.52 0.67 0.65 0.59 0.56 0.55 0.58 0.60 0.62 0.63 0.59 0.50 0.46 0.40 0.34 0.29 0.23 0.20 0.20 0.21 0.23 0.24 0.25 0.22 0.25 0.29
1.51 1.88 2.53 2.95 2.06 1.23 1.03 0.78 0.67 0.54 0.41 0.28 0.23 0.16 0.24 0.22 0.23 0.48 0.93 1.00 0.59 0.46 0.44 0.56 0.75 0.77 0.74 0.71 0.71 0.70 0.68 0.65 0.68 0.64 0.58 0.54 0.49 0.42 0.42 0.40 0.30 0.27 0.27 0.29 0.28 0.25 0.25 0.31 0.37
1.73 2.28 2.92 2.67 1.57 1.09 1.07 0.81 0.61 0.40 0.25 0.22 0.24 0.16 0.21 0.27 0.41 0.73 1.01 0.85 0.60 0.49 0.44 0.63 0.82 0.76 0.77 0.81 0.91 0.91 0.85 0.77 0.71 0.69 0.66 0.61 0.56 0.56 0.62 0.51 0.43 0.40 0.39 0.40 0.42 0.38 0.35 0.41 0.46
1.74 2.51 2.67 1.90 1.36 1.08 0.91 0.76 0.54 0.40 0.23 0.12 0.15 0.21 0.17 0.25 0.48 0.76 0.74 0.57 0.43 0.41 0.41 0.62 0.90 0.83 0.81 0.86 1.01 0.93 0.89 0.88 0.80 0.79 0.79 0.76 0.71 0.72 0.70 0.65 0.62 0.56 0.52 0.51 0.54 0.52 0.48 0.51 0.51
1.83 2.38 2.24 1.87 1.28 1.16 0.84 0.67 0.52 0.44 0.32 0.16 0.13 0.27 0.27 0.37 0.55 0.67 0.67 0.55 0.46 0.45 0.42 0.56 0.85 0.82 0.77 0.81 0.92 0.91 0.91 0.96 0.88 0.82 0.85 0.84 0.82 0.83 0.87 0.84 0.75 0.73 0.69 0.67 0.65 0.60 0.51 0.51 0.56
2.05 2.10 2.05 1.98 1.41 1.25 0.99 0.75 0.50 0.45 0.36 0.24 0.19 0.31 0.35 0.43 0.53 0.65 0.68 0.69 0.65 0.58 0.46 0.49 0.71 0.71 0.70 0.78 0.87 0.92 0.91 0.89 0.80 0.82 0.87 0.88 0.87 0.91 0.93 0.94 0.86 0.83 0.80 0.80 0.78 0.74 0.63 0.58 0.60
1.82 1.77 1.49 1.23 1.33 1.47 1.01 0.60 0.54 0.58 0.54 0.48 0.29 0.40 0.50 0.45 0.42 0.50 0.66 0.86 0.99 0.91 0.75 0.64 0.60 0.60 0.65 0.79 0.87 1.04 1.08 0.93 0.81 0.79 0.79 0.78 0.79 0.83 0.89 0.90 0.85 0.80 0.83 0.83 0.81 0.77 0.72 0.71 0.67
1.57 1.44 1.17 1.13 1.33 1.53 0.91 0.50 0.40 0.40 0.42 0.35 0.27 0.36 0.48 0.46 0.46 0.56 0.71 0.85 0.89 0.89 0.87 0.82 0.81 0.75 0.75 0.78 0.95 1.23 1.36 1.19 0.94 0.82 0.78 0.78 0.74 0.73 0.80 0.77 0.78 0.80 0.88 0.91 0.90 0.85 0.78 0.80 0.79
1.40 1.38 1.25 1.30 1.29 1.20 0.68 0.43 0.29 0.21 0.25 0.26 0.19 0.25 0.33 0.33 0.40 0.58 0.75 0.84 0.85 0.83 0.83 0.82 0.85 0.88 1.00 1.01 1.07 1.32 1.49 1.45 1.09 0.88 0.86 0.77 0.61 0.73 0.78 0.64 0.77 0.85 0.96 0.99 1.01 0.94 0.86 0.90 0.87
1.42 1.27 1.16 1.07 0.95 0.72 0.48 0.36 0.27 0.26 0.27 0.24 0.20 0.23 0.26 0.33 0.40 0.51 0.60 0.64 0.68 0.71 0.71 0.72 0.74 0.74 0.80 0.86 1.18 1.39 1.31 1.38 1.10 1.05 0.97 0.88 0.89 0.92 0.79 0.69 0.81 0.95 1.05 1.02 1.01 1.02 0.96 0.85 0.67
1.17 1.07 0.88 0.80 0.67 0.46 0.36 0.32 0.27 0.29 0.30 0.21 0.18 0.20 0.24 0.33 0.40 0.41 0.44 0.48 0.52 0.56 0.50 0.47 0.52 0.53 0.58 0.67 0.85 1.13 1.39 1.44 1.40 1.34 1.25 1.17 1.06 0.88 0.77 0.76 0.75 0.85 0.93 0.87 0.94 0.94 0.81 0.73 0.64
1.00 0.86 0.70 0.58 0.41 0.41 0.38 0.30 0.26 0.24 0.20 0.14 0.14 0.19 0.27 0.34 0.39 0.40 0.42 0.45 0.49 0.57 0.57 0.48 0.42 0.46 0.46 0.50 0.64 0.88 1.11 1.26 1.28 1.19 1.10 1.27 1.20 0.96 0.85 0.92 0.93 0.89 0.92 1.02 1.04 0.96 0.88 0.79 0.71
0.92 0.91 0.64 0.44 0.39 0.41 0.34 0.28 0.21 0.19 0.16 0.14 0.16 0.24 0.35 0.42 0.45 0.45 0.45 0.48 0.52 0.56 0.62 0.56 0.43 0.37 0.42 0.45 0.51 0.60 0.84 1.00 1.00 1.13 1.09 1.13 1.11 0.97 0.88 0.88 1.02 0.97 0.97 1.06 1.14 1.00 0.91 0.91 0.88
0.84 0.71 0.58 0.40 0.36 0.37 0.37 0.27 0.22 0.22 0.18 0.18 0.22 0.30 0.39 0.46 0.49 0.49 0.48 0.49 0.49 0.50 0.53 0.54 0.49 0.47 0.46 0.43 0.43 0.48 0.54 0.71 0.74 0.75 0.74 0.94 1.04 1.02 1.03 0.92 1.00 1.13 1.15 1.10 1.08 1.05 0.94 0.89 0.91
0.67 0.51 0.44 0.38 0.38 0.35 0.35 0.34 0.26 0.24 0.22 0.21 0.23 0.27 0.35 0.44 0.47 0.49 0.46 0.42 0.42 0.44 0.44 0.47 0.54 0.58 0.57 0.57 0.57 0.54 0.55 0.58 0.65 0.72 0.73 0.86 0.96 1.03 1.04 0.92 0.95 1.08 1.25 1.20 1.12 1.03 0.99 0.83 0.78
0.59 0.59 0.59 0.46 0.48 0.46 0.43 0.33 0.25 0.28 0.25 0.21 0.18 0.19 0.20 0.25 0.32 0.40 0.40 0.36 0.35 0.34 0.33 0.38 0.45 0.52 0.58 0.62 0.66 0.62 0.66 0.67 0.65 0.70 0.68 0.73 0.88 1.04 1.12 1.03 0.98 1.12 1.30 1.43 1.45 1.25 1.14 0.98 0.86
0.66 0.62 0.56 0.51 0.46 0.43 0.37 0.28 0.25 0.22 0.20 0.16 0.13 0.12 0.13 0.15 0.19 0.26 0.29 0.29 0.28 0.27 0.26 0.29 0.34 0.41 0.48 0.57 0.65 0.67 0.69 0.83 0.91 0.79 0.65 0.72 0.85 0.96 1.17 1.24 1.18 1.22 1.36 1.41 1.42 1.38 1.19 1.10 1.03
0.50 0.44 0.42 0.43 0.35 0.26 0.23 0.20 0.19 0.13 0.09 0.09 0.09 0.08 0.07 0.08 0.12 0.18 0.21 0.22 0.23 0.24 0.23 0.25 0.31 0.33 0.36 0.47 0.64 0.73 0.70 0.80 1.01 1.05 1.01 1.05 1.12 1.18 1.34 1.42 1.40 1.40 1.44 1.40 1.50 1.63 1.38 1.17 1.17
0.45 0.36 0.27 0.18 0.16 0.14 0.11 0.11 0.14 0.11 0.07 0.07 0.07 0.05 0.05 0.06 0.07 0.09 0.12 0.15 0.17 0.17 0.19 0.23 0.29 0.32 0.34 0.42 0.53 0.62 0.72 0.90 1.11 1.17 1.22 1.35 1.37 1.40 1.54 1.63 1.65 1.57 1.47 1.49 1.64 1.96 1.83 1.45 1.28
0.32 0.19 0.14 0.10 0.07 0.06 0.05 0.08 0.10 0.08 0.07 0.06 0.05 0.05 0.05 0.05 0.06 0.05 0.07 0.10 0.11 0.10 0.12 0.17 0.26 0.35 0.41 0.48 0.62 0.77 0.99 1.11 1.25 1.40 1.39 1.41 1.46 1.49 1.57 1.78 1.88 1.81 1.76 1.82 1.82 2.00 2.11 1.86 1.63
0.21 0.13 0.09 0.07 0.05 0.05 0.04 0.05 0.06 0.07 0.07 0.08 0.08 0.07 0.06 0.05 0.06 0.04 0.05 0.06 0.09 0.08 0.10 0.17 0.31 0.50 0.71 0.82 1.05 1.33 1.58 1.66 1.58 1.57 1.61 1.59 1.63 1.70 1.66 1.77 1.97 1.93 1.87 1.87 2.02 2.24 2.45 2.38 2.15
0.15 0.08 0.05 0.04 0.04 0.04 0.02 0.03 0.05 0.10 0.14 0.15 0.14 0.13 0.11 0.12 0.10 0.08 0.09 0.08 0.10 0.12 0.21 0.36 0.61 0.91 1.16 1.32 1.51 1.72 1.83 1.87 1.80 1.81 1.79 1.77 1.69 1.62 1.61 1.72 1.93 2.06 2.13 2.15 2.22 2.20 2.44 2.60 2.42
0.11 0.08 0.04 0.02 0.02 0.01 0.01 0.02 0.08 0.16 0.24 0.27 0.28 0.27 0.25 0.25 0.19 0.19 0.22 0.23 0.29 0.39 0.58 0.86 1.12 1.37 1.53 1.58 1.68 1.88 2.03 2.19 2.20 2.08 1.93 1.82 1.78 1.70 1.61 1.66 1.73 1.78 1.85 1.96 2.09 2.16 2.32 2.41 2.51
0.10 0.08 0.05 0.03 0.02 0.02 0.01 0.05 0.16 0.26 0.31 0.36 0.38 0.34 0.32 0.30 0.29 0.35 0.45 0.55 0.70 0.82 1.00 1.21 1.35 1.50 1.51 1.52 1.58 1.71 1.90 2.06 2.08 2.09 2.05 1.92 1.78 1.67 1.58 1.53 1.64 1.66 1.66 1.78 1.89 1.98 2.19 2.31 2.41
0.07 0.10 0.10 0.08 0.07 0.06 0.07 0.19 0.27 0.26 0.27 0.33 0.36 0.35 0.34 0.34 0.41 0.57 0.72 0.86 0.98 1.09 1.19 1.22 1.22 1.27 1.30 1.32 1.36 1.44 1.50 1.53 1.59 1.70 1.62 1.49 1.36 1.31 1.30 1.24 1.30 1.43 1.48 1.65 1.72 1.66 1.71 1.86 2.03
0.03 0.05 0.13 0.16 0.11 0.12 0.15 0.36 0.40 0.31 0.26 0.25 0.27 0.33 0.43 0.57 0.68 0.77 0.88 0.97 1.01 1.14 1.20 1.16 1.13 1.12 1.06 1.00 1.05 1.07 1.11 1.17 1.20 1.22 1.17 1.09 1.04 1.00 0.97 0.97 0.98 1.04 1.12 1.33 1.54 1.52 1.54 1.60 1.67
0.01 0.03 0.10 0.19 0.14 0.13 0.21 0.45 0.45 0.29 0.23 0.22 0.24 0.32 0.48 0.70 0.94 1.08 1.08 0.99 0.90 0.94 1.02 1.01 0.97 0.92 0.84 0.79 0.82 0.85 0.92 0.94 0.93 0.91 0.86 0.84 0.78 0.78 0.75 0.78 0.86 0.91 0.91 1.00 1.13 1.32 1.40 1.45 1.52
0.02 0.05 0.13 0.23 0.22 0.24 0.31 0.48 0.44 0.32 0.28 0.25 0.30 0.40 0.58 0.80 1.00 1.24 1.38 1.27 1.00 0.80 0.82 0.79 0.77 0.80 0.79 0.75 0.77 0.77 0.70 0.64 0.66 0.69 0.63 0.62 0.66 0.70 0.70 0.67 0.68 0.74 0.76 0.85 0.95 1.02 1.12 1.19 1.35
0.04 0.10 0.16 0.20 0.23 0.35 0.57 0.71 0.60 0.50 0.44 0.43 0.47 0.54 0.61 0.88 1.17 1.31 1.36 1.23 1.05 0.78 0.69 0.69 0.66 0.70 0.77 0.70 0.72 0.71 0.61 0.49 0.47 0.47 0.45 0.45 0.49 0.55 0.56 0.58 0.64 0.65 0.66 0.68 0.69 0.74 0.79 0.86 0.97
0.11 0.19 0.27 0.35 0.39 0.41 0.54 0.66 0.53 0.55 0.61 0.56 0.60 0.70 0.72 0.78 0.83 0.85 0.96 0.97 0.91 0.78 0.71 0.75 0.80 0.79 0.72 0.65 0.62 0.58 0.51 0.44 0.43 0.41 0.38 0.39 0.44 0.47 0.48 0.54 0.58 0.57 0.62 0.65 0.65 0.64 0.65 0.74 0.83